Location: Newark
(21.8258°S, 114.1586°E)
Time: 11:03:26
(UTC+00:00)

Hubble Space Telescope - Pass Details

Date: 18 December 2019
Orbit: 536 x 540 km, 28.5° (Epoch: 17 January)

Event Time Altitude Azimuth Distance (km) Brightness Sun altitude
Rises 11:46:48 0° 248° (WSW) 2,686 6.5 -9.7°
Reaches altitude 10° 11:49:08 10° 242° (WSW) 1,794 5.1 -10.1°
Maximum altitude 11:53:09 46° 167° (SSE) 722 1.5 -10.9°
Enters shadow 11:56:49 12° 94° (E) 1,667 2.8 -11.7°
